[[{"header":{"parameterUnit":"m.s-1","parameterCategory":1,"la1":30.2992,"la2":30.254,"lo1":-89.0895,"lo2":-89.0443,"dy":0.0025,"dx":0.0025,"nx":19,"ny":19,"refTime":"2026-04-16T03:00:00:Z","depth":0,"parameterNumber":2,"parameterNumberName":"U-component_of_WINDS"},"data":[0,0,0,-0.4777,-0.4778,-0.4782,-0.4782,-0.4796,-0.4796,0,0,0,0,0,0,0,0,0,0,0,-0.4781,-0.4781,-0.4777,-0.4778,-0.4782,-0.4782,-0.4796,-0.4796,0,0,0,0,0,0,0,0,0,0,0,-0.4781,-0.4781,-0.4781,-0.4778,-0.4782,-0.4782,-0.4796,-0.479,0,0,0,0,0,0,0,0,0,0,-0.4784,-0.4792,-0.4781,-0.4781,-0.4778,-0.4782,-0.4782,-0.4789,-0.479,-0.4797,0,-0.4805,0,-0.4801,-0.4798,-0.4798,0,0,0,-0.4774,-0.4791,-0.4788,-0.4781,-0.4778,-0.4782,-0.4779,-0.479,-0.4791,-0.4799,-0.4805,-0.4806,-0.4801,-0.4798,-0.4798,-0.4854,-0.4855,0,0,-0.4774,-0.4784,-0.4787,-0.4789,-0.4789,-0.4779,-0.4779,-0.479,-0.4798,-0.4806,-0.4806,-0.4802,-0.4798,-0.4798,-0.4854,-0.4854,0,0,0,-0.4775,-0.4784,-0.4781,-0.4789,-0.4789,-0.4779,-0.4779,-0.4798,-0.4796,-0.4806,-0.4802,-0.4798,-0.4798,-0.4853,-0.4854,-0.4887,0,0,0,-0.4775,-0.4785,-0.4781,-0.4787,-0.4789,-0.4793,-0.4787,-0.4795,-0.4796,-0.4802,-0.4798,-0.4799,-0.4853,-0.4854,-0.4885,-0.49,0,0,0,-0.4779,-0.4786,-0.4788,-0.4788,-0.479,-0.4793,-0.4791,-0.4795,-0.4793,-0.4798,-0.4799,-0.4853,-0.4854,-0.4883,-0.4897,-0.4919,0,0,0,-0.4786,-0.4816,-0.4789,-0.4821,-0.479,-0.4813,-0.4791,-0.4807,-0.4815,-0.4798,-0.4853,-0.4854,-0.4882,-0.4895,-0.4917,-0.4939,-0.4949,0,0,-0.483,-0.4822,-0.484,-0.4815,-0.4846,-0.4811,-0.4846,-0.4843,-0.4833,-0.4848,-0.4849,-0.4885,-0.4897,-0.4918,-0.5001,-0.5009,0,0,0,-0.4857,-0.487,-0.4876,-0.4884,-0.4883,-0.4883,-0.4874,-0.4873,-0.4884,-0.4843,-0.4898,-0.4905,-0.4917,-0.4927,-0.4934,-0.4944,-0.4859,-0.4859,-0.4859,-0.4934,-0.4921,-0.495,-0.4938,-0.4946,-0.4937,-0.4943,-0.494,-0.4923,-0.4937,-0.4941,-0.4993,-0.5005,-0.501,-0.5021,-0.4951,-0.4951,-0.4951,-0.4951,-0.4997,-0.5014,-0.4993,-0.5014,-0.5,-0.5017,-0.501,-0.4998,-0.5013,-0.4988,-0.4998,-0.4973,-0.5019,-0.5028,-0.4954,-0.4953,-0.4953,-0.4953,-0.4953,-0.5046,-0.5052,-0.5051,-0.5062,-0.5073,-0.5059,-0.5075,-0.5061,-0.5049,-0.5059,-0.5062,-0.5062,-0.506,-0.5061,-0.5062,-0.5062,-0.5062,-0.5062,-0.5062,-0.5097,-0.5095,-0.511,-0.5112,-0.5116,-0.512,-0.5112,-0.5116,-0.5116,-0.5106,-0.5105,-0.5089,-0.5026,-0.5011,-0.5065,-0.5064,-0.5064,-0.5064,-0.5064,-0.5167,-0.5149,-0.5172,-0.5176,-0.5179,-0.519,-0.5174,-0.5183,-0.5184,-0.5192,-0.5173,-0.5129,-0.512,-0.5114,-0.5102,-0.5176,-0.5176,-0.5176,-0.5176,-0.5208,-0.5203,-0.5224,-0.5232,-0.5238,-0.5226,-0.5252,-0.5247,-0.5238,-0.5238,-0.5225,-0.5208,-0.5202,-0.5196,-0.5189,-0.5177,-0.5268,-0.5268,-0.5268,-0.5251,-0.5245,-0.527,-0.5262,-0.5263,-0.5265,-0.529,-0.53,-0.5286,-0.5272,-0.5238,-0.5234,-0.5205,-0.5196,-0.5181,-0.5169,-0.5147,0,0]},{"header":{"parameterUnit":"m.s-1","parameterCategory":1,"la1":30.2992,"la2":30.254,"lo1":-89.0895,"lo2":-89.0443,"dy":0.0025,"dx":0.0025,"nx":19,"ny":19,"refTime":"2026-04-16T03:00:00:Z","depth":0,"parameterNumber":3,"parameterNumberName":"V-component_of_WINDS"},"data":[0,0,0,2.1049,2.1047,2.0937,2.0936,2.0809,2.0808,0,0,0,0,0,0,0,0,0,0,0,2.1092,2.1091,2.1049,2.1047,2.0937,2.0936,2.0809,2.0808,0,0,0,0,0,0,0,0,0,0,0,2.1092,2.1091,2.1091,2.1047,2.0937,2.0936,2.0809,2.0887,0,0,0,0,0,0,0,0,0,0,2.0992,2.1041,2.1091,2.1091,2.1046,2.0937,2.0936,2.0891,2.0882,2.0865,0,2.0854,0,2.0829,2.08,2.08,0,0,0,2.1039,2.1048,2.101,2.109,2.1045,2.0937,2.0984,2.0886,2.0876,2.0854,2.0852,2.0847,2.0827,2.08,2.0799,2.0729,2.0729,0,0,2.1045,2.1076,2.1016,2.1004,2.1024,2.0988,2.0981,2.088,2.0879,2.0851,2.0843,2.0825,2.0799,2.0798,2.0729,2.0729,0,0,0,2.1068,2.1081,2.1045,2.101,2.0989,2.0985,2.0977,2.0883,2.0869,2.0842,2.0823,2.0798,2.0797,2.0729,2.0729,2.0762,0,0,0,2.1071,2.1094,2.1048,2.1066,2.0991,2.0935,2.0983,2.0876,2.0864,2.0824,2.0798,2.0796,2.0729,2.0729,2.0761,2.0771,0,0,0,2.1095,2.1097,2.1085,2.1068,2.1022,2.0936,2.0916,2.0873,2.0853,2.08,2.0796,2.0729,2.0729,2.076,2.077,2.0762,0,0,0,2.1129,2.1114,2.1086,2.1061,2.1023,2.0958,2.0916,2.0865,2.0824,2.0798,2.0729,2.0729,2.0759,2.0769,2.0761,2.0761,2.0764,0,0,2.1127,2.1115,2.1098,2.1069,2.1018,2.0972,2.0924,2.0855,2.0821,2.0761,2.0759,2.0761,2.077,2.0762,2.0771,2.0774,0,0,0,2.1108,2.1096,2.1076,2.1039,2.0988,2.0944,2.088,2.0855,2.0803,2.0797,2.0755,2.0759,2.0754,2.0752,2.0754,2.0747,2.073,2.073,2.073,2.1149,2.1107,2.1076,2.1022,2.0986,2.0921,2.0888,2.0843,2.081,2.0801,2.0782,2.0793,2.0793,2.0794,2.0787,2.0779,2.0779,2.0779,2.0779,2.1141,2.1118,2.1076,2.1031,2.0987,2.0948,2.0885,2.0863,2.0819,2.0803,2.0796,2.0782,2.0798,2.079,2.0781,2.0781,2.0781,2.0781,2.0781,2.1163,2.1144,2.1115,2.1058,2.1018,2.0963,2.0924,2.0884,2.0846,2.0839,2.0815,2.0815,2.0809,2.0831,2.0831,2.0831,2.0831,2.0831,2.0831,2.1197,2.1163,2.1135,2.1081,2.1052,2.1009,2.0944,2.0914,2.0871,2.0845,2.0844,2.0812,2.0808,2.0808,2.0831,2.0831,2.0831,2.0831,2.0831,2.1203,2.1196,2.1154,2.1126,2.1058,2.1021,2.0972,2.0914,2.0884,2.0865,2.0835,2.0839,2.0823,2.082,2.082,2.0845,2.0845,2.0845,2.0845,2.1221,2.121,2.1158,2.1115,2.1069,2.102,2.0973,2.0922,2.0868,2.0846,2.0837,2.0833,2.0832,2.0816,2.0814,2.0813,2.0835,2.0835,2.0835,2.1223,2.1205,2.1173,2.1122,2.1067,2.1019,2.0973,2.0924,2.0861,2.0834,2.0828,2.0828,2.0821,2.0821,2.0794,2.0791,2.0788,0,0]}]]